Weather in Stroykeramika

Russia / Samara Oblast     53°16′13″N   50°23′36″E
temp.,
°C
wind,
m/s
gust,
m/s
humid.,
%
clouds,
%
prec.,
mm/h
press.,
hPa
HPBL,
m
12 may, wed
wed1201:00+16e225693 0.0 102525
04:00+15e376264 0.0 1026127
07:00+16e410578 0.0 1026259
10:00+22ese6103616 0.0 10261152
13:00+24ese7931100 0.0 10252143
16:00+24ese6742100 0.0 10251954
19:00+20se385951 0.0 1025221
22:00+17e376154 0.0 1025119
13 may, thu
thu1301:00+15e410605 0.0 1025176
04:00+14e4106284 0.0 1025186
07:00+16e51161100 0.0 1025285
10:00+21se594674 0.0 1025623
13:00+25ese683752 0.0 10241167
16:00+27se8103535 0.0 10231964
19:00+23se5114583 0.0 1022328
22:00+19ese4105695 0.0 1023180
14 may, fri
fri1401:00+16ese386290 0.1 1023146
04:00+15se3117030 0.3 1024185
07:00+18sse310596 0.1 1024280
10:00+25s583616 0.1 1024697
13:00+28s68265 0.0 10231494
16:00+28s78285 0.0 10231760
19:00+24sse510425 0.0 1023256
22:00+19sse335072 0.0 102332
15 may, sat
sat1501:00+17sse23482 0.0 102324
04:00+15se22495 0.0 102313
07:00+18ese25555 0.0 1023166
10:00+26s47345 0.0 1023642
13:00+29s67235 0.0 10221922
16:00+30s57235 0.0 10212450
19:00+26s22395 0.0 102018
22:00+21sse22470 0.0 102016
16 may, sun
sun1601:00+19sse22510 0.0 102012
04:00+17ese22560 0.0 102011
07:00+20ese24555 0.0 1021146
10:00+27sse57395 0.0 1019770
13:00+31s68255 0.0 10183589
16:00+31ssw572426 0.0 10173295
19:00+27ssw2240100 0.0 101621
22:00+22sw114729 0.0 101712